Tracking 29932 objects as of 3-Dec-2024
HD Live streaming from Space Station
objects crossing your sky now

NAVSTAR 81 (USA 319)

Track NAVSTAR 81 (USA 319) now!
NAVSTAR 81 (USA 319) is classified as:


NORAD ID: 48859
Int'l Code: 2021-054A
Perigee: 20,137.2 km
Apogee: 20,239.5 km
Inclination: 55.4 °
Period: 717.9 minutes
Semi major axis: 26559 km
RCS: Unknown
Launch date: June 17, 2021
Source: United States (US)
Launch site: AIR FORCE EASTERN TEST RANGE (AFETR)
PRN: 11
Your satellite tracking list
Your tracking list is empty




NASA's NSSDC Master Catalog

Two Line Element Set (TLE):
1 48859U 21054A   24337.20214168 -.00000066  00000-0  00000-0 0  9992
2 48859  55.3535 355.0099 0019271 228.3316 195.3362  2.00574955 25483
Source of the keplerian elements: AFSPC